| time (UTC) | temp C | wind direction | speed KPH | gust KPH | rain 1hr cm | rain 24hr cm | rain mn cm | humidity % | barometer mb |
| 20260503033058 | 12 | 57 | 0.0 | 3.2 | 0.00 | 0.00 | 0.00 | 49 | 1010.3 |
| 20260503031552 | 13 | 57 | 1.6 | 4.8 | 0.00 | 0.00 | 0.00 | 42 | 1010.1 |
| 20260503030052 | 15 | 55 | 3.2 | 6.4 | 0.00 | 0.00 | 0.00 | 38 | 1010.1 |
| 20260503024547 | 16 | 227 | 0.0 | 1.6 | 0.00 | 0.00 | 0.00 | 34 | 1010.0 |
| 20260503023046 | 16 | 0 | 0.0 | 0.0 | 0.00 | 0.00 | 0.00 | 36 | 1010.0 |
| 20260503021544 | 17 | 0 | 0.0 | 3.2 | 0.00 | 0.00 | 0.00 | 32 | 1010.0 |
| 20260503020047 | 18 | 228 | 0.0 | 6.4 | 0.00 | 0.00 | 0.00 | 32 | 1010.1 |
| 20260503014543 | 20 | 230 | 3.2 | 11.3 | 0.00 | 0.00 | 0.00 | 29 | 1010.1 |
| 20260503013040 | 19 | 233 | 4.8 | 14.5 | 0.00 | 0.00 | 0.00 | 31 | 1010.4 |
| 20260503011544 | 19 | 234 | 6.4 | 17.7 | 0.00 | 0.00 | 0.00 | 29 | 1010.6 |
| 20260503010044 | 19 | 273 | 8.0 | 14.5 | 0.00 | 0.00 | 0.00 | 29 | 1010.8 |
| 20260503004608 | 20 | 267 | 9.7 | 19.3 | 0.00 | 0.00 | 0.00 | 27 | 1011.1 |
| 20260503003041 | 20 | 284 | 8.0 | 14.5 | 0.00 | 0.00 | 0.00 | 26 | 1011.5 |
| 20260503001550 | 20 | 259 | 12.9 | 25.7 | 0.00 | 0.00 | 0.00 | 27 | 1011.7 |
| 20260503000055 | 20 | 236 | 12.9 | 25.7 | 0.00 | 0.00 | 0.00 | 27 | 1011.8 |
| 20260502234542 | 20 | 248 | 12.9 | 33.8 | 0.00 | 0.00 | 0.00 | 27 | 1011.9 |
| 20260502233059 | 20 | 216 | 11.3 | 20.9 | 0.00 | 0.00 | 0.00 | 27 | 1012.1 |
| 20260502231558 | 20 | 220 | 12.9 | 25.7 | 0.00 | 0.00 | 0.00 | 27 | 1012.4 |
| 20260502230045 | 20 | 249 | 12.9 | 22.5 | 0.00 | 0.00 | 0.00 | 26 | 1012.6 |
| 20260502224544 | 20 | 302 | 14.5 | 25.7 | 0.00 | 0.00 | 0.00 | 26 | 1013.0 |
| 20260502223046 | 20 | 247 | 4.8 | 17.7 | 0.00 | 0.00 | 0.00 | 27 | 1013.2 |
| 20260502221559 | 20 | 192 | 9.7 | 20.9 | 0.00 | 0.00 | 0.00 | 29 | 1013.2 |
| 20260502220049 | 20 | 254 | 9.7 | 19.3 | 0.00 | 0.00 | 0.00 | 28 | 1013.7 |
| 20260502214542 | 20 | 222 | 8.0 | 19.3 | 0.00 | 0.00 | 0.00 | 28 | 1013.9 |
| 20260502213050 | 19 | 271 | 6.4 | 24.1 | 0.00 | 0.00 | 0.00 | 28 | 1014.3 |
| 20260502211548 | 18 | 331 | 3.2 | 20.9 | 0.00 | 0.00 | 0.00 | 30 | 1014.5 |
| 20260502210044 | 18 | 224 | 9.7 | 27.4 | 0.00 | 0.00 | 0.00 | 29 | 1014.8 |
| 20260502204551 | 18 | 204 | 11.3 | 19.3 | 0.00 | 0.00 | 0.00 | 30 | 1015.0 |
| 20260502203055 | 18 | 225 | 9.7 | 20.9 | 0.00 | 0.00 | 0.00 | 29 | 1015.1 |
| 20260502201549 | 18 | 337 | 9.7 | 17.7 | 0.00 | 0.00 | 0.00 | 31 | 1015.4 |
| 20260502200043 | 18 | 238 | 8.0 | 29.0 | 0.00 | 0.00 | 0.00 | 31 | 1015.7 |
| 20260502194545 | 18 | 240 | 11.3 | 22.5 | 0.00 | 0.00 | 0.00 | 30 | 1015.7 |
| 20260502193042 | 17 | 254 | 12.9 | 24.1 | 0.00 | 0.00 | 0.00 | 31 | 1015.8 |
| 20260502191548 | 17 | 279 | 4.8 | 24.1 | 0.00 | 0.00 | 0.00 | 33 | 1016.2 |
| 20260502190051 | 17 | 282 | 6.4 | 32.2 | 0.00 | 0.00 | 0.00 | 34 | 1016.5 |
| 20260502184543 | 17 | 246 | 3.2 | 14.5 | 0.00 | 0.00 | 0.00 | 33 | 1016.8 |
| 20260502183043 | 17 | 257 | 11.3 | 22.5 | 0.00 | 0.00 | 0.00 | 34 | 1017.0 |
| 20260502181549 | 16 | 246 | 9.7 | 19.3 | 0.00 | 0.00 | 0.00 | 34 | 1017.1 |
| 20260502163042 | 15 | 65 | 3.2 | 11.3 | 0.00 | 0.00 | 0.00 | 38 | 1018.4 |
| 20260502161553 | 14 | 239 | 3.2 | 12.9 | 0.00 | 0.00 | 0.00 | 40 | 1018.5 |
| 20260502151547 | 12 | 292 | 1.6 | 9.7 | 0.00 | 0.00 | 0.00 | 51 | 1018.7 |
| 20260502123041 | 1 | 248 | 1.6 | 3.2 | 0.00 | 0.00 | 0.00 | 85 | 1018.6 |
| 20260502121546 | 0 | 0 | 0.0 | 4.8 | 0.00 | 0.00 | 0.00 | 85 | 1018.5 |
| 20260502114555 | 1 | 0 | 0.0 | 0.0 | 0.00 | 0.00 | 0.00 | 80 | 1018.4 |
| 20260502113045 | 2 | 0 | 0.0 | 1.6 | 0.00 | 0.00 | 0.00 | 81 | 1018.4 |
| 20260502111541 | 2 | 26 | 0.0 | 3.2 | 0.00 | 0.00 | 0.00 | 82 | 1018.3 |
| 20260502110042 | 2 | 0 | 0.0 | 1.6 | 0.00 | 0.00 | 0.00 | 82 | 1018.4 |
| 20260502104548 | 2 | 0 | 0.0 | 1.6 | 0.00 | 0.00 | 0.00 | 81 | 1018.4 |
| 20260502103041 | 2 | 0 | 0.0 | 1.6 | 0.00 | 0.00 | 0.00 | 80 | 1018.2 |
| 20260502101550 | 2 | 0 | 0.0 | 3.2 | 0.00 | 0.00 | 0.00 | 83 | 1018.3 |
| 20260502100104 | 2 | 0 | 0.0 | 4.8 | 0.00 | 0.00 | 0.00 | 85 | 1018.2 |
| 20260502070046 | 5 | 0 | 0.0 | 1.6 | 0.00 | 0.00 | 0.00 | 75 | 1017.5 |
| 20260502064548 | 5 | 0 | 0.0 | 1.6 | 0.00 | 0.00 | 0.00 | 73 | 1017.5 |
| 20260502063042 | 6 | 0 | 0.0 | 3.2 | 0.00 | 0.00 | 0.00 | 72 | 1017.5 |
| 20260502061540 | 7 | 0 | 0.0 | 1.6 | 0.00 | 0.00 | 0.00 | 69 | 1017.4 |
| 20260502060041 | 7 | 0 | 0.0 | 3.2 | 0.00 | 0.00 | 0.00 | 68 | 1017.1 |
| 20260502054547 | 8 | 0 | 0.0 | 3.2 | 0.00 | 0.00 | 0.00 | 69 | 1016.8 |
| 20260502053044 | 7 | 337 | 0.0 | 3.2 | 0.00 | 0.00 | 0.00 | 72 | 1016.7 |
| 20260502051600 | 6 | 314 | 0.0 | 3.2 | 0.00 | 0.00 | 0.00 | 74 | 1016.6 |
| 20260502050044 | 7 | 317 | 1.6 | 3.2 | 0.00 | 0.00 | 0.00 | 71 | 1016.5 |
| 20260502044541 | 7 | 317 | 0.0 | 3.2 | 0.00 | 0.00 | 0.00 | 71 | 1016.5 |
| 20260502043045 | 8 | 317 | 0.0 | 1.6 | 0.00 | 0.00 | 0.00 | 69 | 1016.4 |
| 20260502041547 | 8 | 317 | 0.0 | 1.6 | 0.00 | 0.00 | 0.00 | 68 | 1016.3 |
| 20260502040045 | 9 | 317 | 0.0 | 3.2 | 0.00 | 0.00 | 0.00 | 67 | 1016.2 |
| 20260502034546 | 10 | 0 | 0.0 | 1.6 | 0.00 | 0.00 | 0.00 | 66 | 1016.0 |